Regional Weather Roundup
Issued by NWS

Home | Current Version | Previous Version | Text Only | Print | Product List | Glossary Off
Versions: 1 2 3 4 5 6 7 8 9 10 11 12 13 14 15 16 17 18 19 20 21 22 23 24 25 26 27 28 29 30 31 32 33 34 35 36 37 38 39 40 41 42 43 44 45 46 47 48 49 50

000
ASUS43 KFSD 270610
RWRSD

WEATHER ROUNDUP FOR SOUTH DAKOTA
NATIONAL WEATHER SERVICE SIOUX FALLS SD
1200 AM CST MON FEB 27 2017

NOTE: "FAIR" INDICATES FEW OR NO CLOUDS BELOW 12,000 FEET WITH NO
SIGNIFICANT WEATHER AND/OR OBSTRUCTIONS TO VISIBILITY.


SDZ001>005-009-010-012>017-270700-
NORTHWEST AND NORTH CENTRAL SOUTH DAKOTA

CITY           SKY/WX    TMP DP  RH WIND       PRES   REMARKS
BUFFALO          N/A     22  19  89 NE8       29.67F WCI  12
FAITH            N/A     24  24 100 NE10      29.78F WCI  14
MOBRIDGE       CLOUDY    25  21  85 NE7       29.80R WCI  17
$$

SDZ012>016-024>037-041>051-057-063-072>074-270700-
SOUTHWEST AND SOUTH CENTRAL SOUTH DAKOTA

CITY           SKY/WX    TMP DP  RH WIND       PRES   REMARKS
RAPID CTY ARPT CLOUDY    26  16  65 W3        29.75F
PIERRE         CLOUDY    26  14  60 SW8       29.81F WCI  18
CUSTER         CLOUDY    17   6  62 SW5       29.66F WCI  10
ELLSWORTH AFB  CLOUDY    27  14  57 SW5       29.74F WCI  22
PHILIP         MOCLDY    22  15  75 W7        29.80S WCI  13
PINE RIDGE     CLOUDY     8   4  83 CALM      29.80F
SPEARFISH      FAIR      21   9  58 CALM      29.72S
WINNER         FAIR      26  14  60 SW12      29.84F WCI  16
$$

SDZ004>011-016>023-039-040-270700-
NORTHEAST SOUTH DAKOTA

CITY           SKY/WX    TMP DP  RH WIND       PRES   REMARKS
ABERDEEN       CLOUDY    25  20  81 N5        29.84S WCI  19
WATERTOWN      MOCLDY    26  22  84 S5        29.83S WCI  20
BROOKINGS      CLEAR     28  22  78 SW10      29.86R WCI  19
SISSETON         N/A     22  20  92 SE7       29.87S WCI  13
$$

SDZ017-020-022-023-036>040-048>070-270700-
SOUTHEAST SOUTH DAKOTA

CITY           SKY/WX    TMP DP  RH WIND       PRES   REMARKS
SIOUX FALLS    PTCLDY    27  20  75 S8        29.91S WCI  19
HURON          MOCLDY    27  21  78 SW6       29.85S WCI  20
CHAMBERLAIN    CLEAR     26  20  77 SW7       29.85F WCI  18
MITCHELL       CLOUDY    28  20  71 SW8       29.89S WCI  20
YANKTON        CLEAR     21  12  68 CALM      29.93S
$$

ABBREVIATIONS USED IN REMARKS
   TC - TEMPERATURE IN CELSIUS
  WCI - WIND CHILL INDEX
   HX - HEAT INDEX
  VSB - VISIBILITY





USA.gov is the U.S. government's official web portal to all federal, state and local government web resources and services.